Weather History for Rice Lake, WI

Change the Weather History Date:

Sunday, November 25, 2012

  Actual Average Record
Temperature  
Mean Temperature 28 °F -  
Max Temperature 30 °F 35 °F 51 °F (1998)
Min Temperature 26 °F 21 °F -2 °F (1996)
Degree Days  
Heating Degree Days 37    
Moisture  
Dew Point 21 °F    
Average Humidity 74    
Maximum Humidity 86    
Minimum Humidity 59    
Precipitation  
Precipitation 0.00 in - - ()
Sea Level Pressure  
Sea Level Pressure 29.92 in    
Wind  
Wind Speed 5 mph (West)    
Max Wind Speed 14 mph    
Max Gust Speed 18 mph    
Visibility 10 miles    
Events Snow    
Averages and records for this station are not official NWS values.
T = Trace of Precipitation, MM = Missing Value Source: NWS Daily Summary

Daily Weather History Graph

Daily Weather History Graph

Search for Another Location

Airport:

Trip Planner

Search our weather history database for the weather conditions in past years. The results will help you decide how hot, cold, wet, or windy it might be!

Date:

Astronomy

Nov. 25, 2012 Rise Set
Actual Time 7:19 AM CST 4:28 PM CST
Civil Twilight 6:46 AM CST 5:01 PM CST
Nautical Twilight 6:10 AM CST 5:37 PM CST
Astronomical Twilight 5:34 AM CST 6:13 PM CST
Moon 2:50 PM CST (11/25) 4:28 AM CST (11/25)
Length of Visible Light 10h 14m
Length of Day
9h 08m
Waxing Gibbous, 93% of the Moon is Illuminated
Nov 25
Waxing Gibbous
Nov 28
Full
Dec 6
Last Quarter
Dec 13
New
Dec 19
First Quarter

Hourly Weather History & Observations

Time (CST) Temp. Windchill Dew Point Humidity Pressure Visibility Wind Dir Wind Speed Gust Speed Precip Events Conditions
12:15 AM 26.6 °F - 21.2 °F 80% 29.81 in 10.0 mi Calm Calm - N/A   Overcast
12:55 AM 26.6 °F - 21.2 °F 80% 29.81 in 10.0 mi Calm Calm - N/A   Overcast
1:15 AM 28.4 °F - 21.2 °F 74% 29.80 in 10.0 mi Calm Calm - N/A   Overcast
1:35 AM 28.4 °F - 21.2 °F 74% 29.79 in 10.0 mi Calm Calm - N/A   Overcast
1:55 AM 28.4 °F - 21.2 °F 74% 29.79 in 10.0 mi Calm Calm - N/A   Overcast
2:15 AM 28.4 °F - 21.2 °F 74% 29.80 in 10.0 mi Calm Calm - N/A   Overcast
2:35 AM 28.4 °F - 21.2 °F 74% 29.81 in 10.0 mi Calm Calm - N/A   Overcast
2:55 AM 28.4 °F - 21.2 °F 74% 29.81 in 10.0 mi Calm Calm - N/A   Overcast
3:15 AM 28.4 °F - 21.2 °F 74% 29.80 in 10.0 mi Calm Calm - N/A   Overcast
3:35 AM 28.4 °F 24.6 °F 21.2 °F 74% 29.80 in 10.0 mi West 3.5 mph - N/A   Overcast
3:55 AM 28.4 °F 23.3 °F 21.2 °F 74% 29.81 in 10.0 mi West 4.6 mph - N/A   Overcast
4:15 AM 28.4 °F 22.2 °F 21.2 °F 74% 29.81 in 10.0 mi West 5.8 mph - N/A   Overcast
4:35 AM 28.4 °F 20.4 °F 21.2 °F 74% 29.82 in 10.0 mi WNW 8.1 mph - N/A   Overcast
4:55 AM 28.4 °F 19.7 °F 21.2 °F 74% 29.82 in 10.0 mi WNW 9.2 mph - N/A   Overcast
5:15 AM 28.4 °F 22.2 °F 21.2 °F 74% 29.83 in 10.0 mi WNW 5.8 mph - N/A   Overcast
5:35 AM 28.4 °F 19.1 °F 21.2 °F 74% 29.83 in 10.0 mi NW 10.4 mph - N/A   Overcast
5:55 AM 28.4 °F 20.4 °F 21.2 °F 74% 29.84 in 10.0 mi WNW 8.1 mph - N/A   Overcast
6:15 AM 28.4 °F 21.2 °F 21.2 °F 74% 29.84 in 10.0 mi WNW 6.9 mph - N/A   Overcast
6:55 AM 26.6 °F 20.0 °F 21.2 °F 80% 29.85 in 10.0 mi West 5.8 mph - N/A   Overcast
7:15 AM 26.6 °F 19.1 °F 21.2 °F 80% 29.86 in 10.0 mi WNW 6.9 mph - N/A   Overcast
7:35 AM 28.4 °F 21.2 °F 21.2 °F 74% 29.86 in 10.0 mi WNW 6.9 mph - N/A   Overcast
7:55 AM 28.4 °F 19.1 °F 21.2 °F 74% 29.88 in 10.0 mi WNW 10.4 mph - N/A   Overcast
8:15 AM 26.6 °F 18.2 °F 21.2 °F 80% 29.89 in 10.0 mi WNW 8.1 mph - N/A   Overcast
8:55 AM 28.4 °F 19.1 °F 21.2 °F 74% 29.90 in 10.0 mi West 10.4 mph - N/A   Overcast
9:15 AM 28.4 °F 18.5 °F 21.2 °F 74% 29.90 in 10.0 mi WNW 11.5 mph - N/A   Overcast
9:35 AM 28.4 °F 20.4 °F 21.2 °F 74% 29.91 in 10.0 mi WNW 8.1 mph - N/A   Overcast
9:55 AM 28.4 °F 20.4 °F 21.2 °F 74% 29.91 in 10.0 mi WNW 8.1 mph - N/A   Overcast
10:15 AM 28.4 °F 19.1 °F 21.2 °F 74% 29.92 in 10.0 mi WNW 10.4 mph - N/A   Overcast
10:35 AM 28.4 °F 20.4 °F 21.2 °F 74% 29.92 in 10.0 mi WNW 8.1 mph - N/A   Overcast
10:55 AM 28.4 °F 20.4 °F 21.2 °F 74% 29.92 in 10.0 mi WNW 8.1 mph - N/A   Overcast
11:15 AM 28.4 °F 19.7 °F 21.2 °F 74% 29.92 in 10.0 mi West 9.2 mph 17.3 mph N/A   Overcast
11:35 AM 30.2 °F 21.3 °F 23.0 °F 75% 29.92 in 10.0 mi West 10.4 mph 18.4 mph N/A   Overcast
11:55 AM 30.2 °F 22.6 °F 23.0 °F 75% 29.92 in 10.0 mi West 8.1 mph - N/A   Overcast
12:15 PM 30.2 °F 21.9 °F 23.0 °F 75% 29.92 in 10.0 mi West 9.2 mph - N/A   Overcast
12:35 PM 28.4 °F 19.1 °F 21.2 °F 74% 29.92 in 10.0 mi WNW 10.4 mph - N/A   Overcast
12:55 PM 28.4 °F 19.1 °F 21.2 °F 74% 29.93 in 10.0 mi WNW 10.4 mph - N/A   Overcast
1:15 PM 28.4 °F 17.5 °F 21.2 °F 74% 29.93 in 10.0 mi WNW 13.8 mph 18.4 mph N/A   Overcast
1:35 PM 28.4 °F 19.7 °F 21.2 °F 74% 29.93 in 10.0 mi West 9.2 mph - N/A   Overcast
1:55 PM 28.4 °F 18.5 °F 21.2 °F 74% 29.94 in 10.0 mi West 11.5 mph 18.4 mph N/A   Overcast
2:15 PM 28.4 °F 18.5 °F 21.2 °F 74% 29.94 in 10.0 mi West 11.5 mph - N/A   Overcast
2:35 PM 28.4 °F 19.1 °F 21.2 °F 74% 29.95 in 10.0 mi West 10.4 mph - N/A   Overcast
2:55 PM 28.4 °F 19.7 °F 21.2 °F 74% 29.95 in 10.0 mi West 9.2 mph - N/A   Overcast
3:15 PM 28.4 °F 19.7 °F 19.4 °F 69% 29.95 in 10.0 mi West 9.2 mph - N/A   Overcast
3:35 PM 28.4 °F 19.7 °F 19.4 °F 69% 29.96 in 10.0 mi West 9.2 mph - N/A   Overcast
3:55 PM 28.4 °F 21.2 °F 19.4 °F 69% 29.97 in 10.0 mi West 6.9 mph - N/A   Mostly Cloudy
4:15 PM 26.6 °F 20.0 °F 19.4 °F 74% 29.97 in 10.0 mi West 5.8 mph - N/A   Scattered Clouds
4:35 PM 26.6 °F 21.2 °F 19.4 °F 74% 29.98 in 10.0 mi West 4.6 mph - N/A   Mostly Cloudy
4:55 PM 26.6 °F 20.0 °F 19.4 °F 74% 29.98 in 10.0 mi WSW 5.8 mph - N/A   Overcast
5:15 PM 26.6 °F 21.2 °F 19.4 °F 74% 29.98 in 10.0 mi WSW 4.6 mph - N/A   Overcast
5:35 PM 26.6 °F 22.6 °F 19.4 °F 74% 29.99 in 10.0 mi WSW 3.5 mph - N/A   Overcast
5:55 PM 26.6 °F 20.0 °F 19.4 °F 74% 29.99 in 10.0 mi WSW 5.8 mph - N/A   Overcast
6:15 PM 26.6 °F 20.0 °F 19.4 °F 74% 30.00 in 10.0 mi WSW 5.8 mph - N/A Snow Light Snow
6:35 PM 26.6 °F 21.2 °F 19.4 °F 74% 30.00 in 7.0 mi WSW 4.6 mph - N/A Snow Light Snow
6:55 PM 26.6 °F 22.6 °F 19.4 °F 74% 30.00 in 10.0 mi WSW 3.5 mph - N/A   Overcast
7:15 PM 26.6 °F 21.2 °F 19.4 °F 74% 30.00 in 7.0 mi WSW 4.6 mph - N/A Snow Light Snow
7:35 PM 26.6 °F 19.1 °F 21.2 °F 80% 30.01 in 10.0 mi SW 6.9 mph - N/A Snow Light Snow
8:15 PM 26.6 °F 20.0 °F 21.2 °F 80% 30.01 in 10.0 mi WSW 5.8 mph - N/A   Overcast
8:35 PM 26.6 °F 19.1 °F 21.2 °F 80% 30.02 in 10.0 mi WSW 6.9 mph - N/A   Overcast
8:55 PM 26.6 °F 18.2 °F 21.2 °F 80% 30.02 in 10.0 mi WSW 8.1 mph - N/A Snow Light Snow
9:15 PM 26.6 °F 20.0 °F 21.2 °F 80% 30.03 in 10.0 mi West 5.8 mph - N/A Snow Light Snow
9:35 PM 26.6 °F 18.2 °F 23.0 °F 86% 30.04 in 10.0 mi West 8.1 mph - N/A Snow Light Snow
10:15 PM 26.6 °F 21.2 °F 23.0 °F 86% 30.05 in 10.0 mi WNW 4.6 mph - N/A Snow Light Snow
10:35 PM 26.6 °F 17.5 °F 19.4 °F 74% 30.05 in 10.0 mi NW 9.2 mph - N/A   Overcast
10:55 PM 26.6 °F 17.5 °F 14.0 °F 59% 30.07 in 10.0 mi NW 9.2 mph 16.1 mph N/A   Overcast
11:35 PM 26.6 °F 19.1 °F 14.0 °F 59% 30.08 in 10.0 mi NNW 6.9 mph - N/A   Overcast
11:55 PM 26.6 °F 19.1 °F 14.0 °F 59% 30.09 in 10.0 mi North 6.9 mph - N/A   Overcast